Home > Weather > Altenburg > Past weeks

Flag for Germany Weather for the Past 2 Weeks in Altenburg, Thuringia, Germany

Now
43 °F

Partly sunny.


Feels Like: 41 °F
Forecast: 30 / 42 °F
Wind: 3 mph from Southwest

Location: Altenburg Nobitz

Current Time: Feb 12, 2016 at 4:05:41 PM

Latest Report: Feb 12, 2016 at 3:20 PM


Visibility: N/A

Pressure: 29.53 "Hg

Humidity: 61%

Dew point: 30 °F

Location of AltenburgLocation

Historic Weather in Altenburg — Graph

°F

Altenburg Temperature Yesterday

Maximum temperature yesterday: 45 °F (at 1:20 PM)
Minimum temperature yesterday: 37 °F (at 7:50 AM)
Average temperature yesterday: 40 °F

High & Low Weather Summary for the Past Weeks

 TemperatureHumidityPressure
High55 °F (Feb 1, 2:50 PM)100% (Feb 1, 7:50 AM)30.30 "Hg (Feb 1, 7:50 AM)
Low32 °F (Feb 12, 7:50 AM)57% (Jan 28, 4:20 PM)29.12 "Hg (Feb 9, 5:50 PM)
Average45 °F75%29.83 "Hg
* Reported Jan 28 2:20 PM — Feb 12 2:20 PM, Altenburg, Weather by CustomWeather, © 2016

Note: Actual official high and low records may vary slightly from our data, if they occured in-between our weather recording intervals... More about our weather records

Advertising

Altenburg Weather History for the Previous 24 Hours

 ConditionsComfort  
Time TempWeatherWind HumidityBarometerVisibility
2:20 PM
Fri, Feb 12
45 °FScattered clouds.8 mph61%29.56 "HgN/A
1:50 PM43 °FScattered clouds.8 mph66%29.56 "HgN/A
1:20 PM43 °FScattered clouds.6 mph66%29.59 "HgN/A
12:50 PM41 °FScattered clouds.9 mph66%29.59 "HgN/A
12:20 PM43 °FScattered clouds.10 mph66%29.59 "HgN/A
11:50 AM43 °FPassing clouds.10 mph66%29.62 "HgN/A
11:20 AM41 °FPassing clouds.10 mph70%29.62 "HgN/A
10:50 AM41 °FPassing clouds.8 mph76%29.62 "HgN/A
10:20 AM39 °FPassing clouds.9 mph81%29.65 "HgN/A
9:50 AM36 °FScattered clouds.6 mph93%29.65 "HgN/A
9:20 AM36 °FScattered clouds.7 mph87%29.65 "HgN/A
8:50 AM36 °FPartly sunny.6 mph87%29.65 "HgN/A
8:20 AM34 °FSunny.6 mph93%29.65 "Hg10 mi
7:50 AM32 °FSunny.5 mph100%29.65 "Hg10 mi
5:50 PM
Thu, Feb 11
39 °FPassing clouds.8 mph70%29.65 "HgN/A
5:20 PM39 °FPartly cloudy.12 mph70%29.65 "HgN/A
4:50 PM41 °FPartly sunny.10 mph66%29.65 "HgN/A
4:20 PM43 °FPartly sunny.14 mph61%29.62 "HgN/A
Weather by CustomWeather, © 2016

See weather overviewHow to use our weather pages